Precipitable_Water
1.52 1.61 1.67 1.66 1.71 1.87 1.95 2.00 1.97 1.92 1.91 1.63 1.58 1.60 1.65 1.62 1.71 1.77 1.70 1.84 1.87 1.96 2.02 1.95 1.99 2.00 1.96 2.01 2.03 1.75 1.88 2.11 1.76 1.78 1.87 1.90 1.79 1.77 1.84 1.92 2.03 1.99 2.14
1.55 1.60 1.70 1.88 2.04 2.11 2.15 2.15 2.15 2.23 2.10 1.98 1.64 1.71 1.72 1.64 1.70 1.79 1.77 1.74 1.77 1.84 1.93 1.92 1.90 1.86 1.81 1.92 1.94 1.85 1.85 1.88 1.59 1.42 1.66 1.72 1.68 1.77 1.79 1.77 1.85 1.95 1.98
1.66 1.70 1.77 1.91 2.01 2.07 1.90 1.85 1.71 2.12 2.49 2.17 1.90 1.84 1.87 1.93 1.89 1.75 1.76 1.80 1.86 1.89 1.93 1.99 1.94 1.96 1.91 1.97 1.98 1.93 1.84 1.75 1.62 1.52 1.48 1.58 1.53 1.61 1.63 1.68 1.56 1.66 1.87
1.71 1.72 1.74 1.78 1.83 1.83 1.80 1.71 1.68 1.99 2.16 2.26 2.03 1.76 1.84 1.87 1.90 1.93 1.97 1.83 1.93 1.97 1.96 1.91 1.84 1.78 1.75 1.76 1.76 1.74 1.73 1.59 1.55 1.48 1.43 1.34 1.34 1.40 1.49 1.47 1.34 1.49 1.51
1.68 1.64 1.64 1.67 1.70 1.67 1.63 1.48 1.41 1.70 2.00 2.09 2.04 2.00 2.04 2.11 2.04 1.99 2.00 2.04 2.01 1.94 1.92 1.88 1.88 1.81 1.76 1.69 1.61 1.61 1.54 1.48 1.40 1.29 1.21 1.18 1.12 1.14 1.16 1.21 1.09 1.10 1.17
1.69 1.67 1.64 1.56 1.47 1.53 1.58 1.53 1.54 1.52 1.66 1.85 1.97 1.99 1.94 1.89 1.80 1.81 1.87 1.74 1.70 1.67 1.61 1.64 1.64 1.69 1.69 1.64 1.56 1.50 1.43 1.30 1.16 1.09 1.06 0.99 1.01 1.06 1.04 0.93 0.90 0.84 0.69
1.54 1.53 1.49 1.43 1.50 1.61 1.56 1.48 1.50 1.53 1.63 1.64 1.75 1.87 1.78 1.72 1.69 1.68 1.69 1.54 1.54 1.60 1.61 1.60 1.48 1.49 1.49 1.54 1.56 1.49 1.42 1.26 1.16 1.13 1.02 1.07 1.08 1.16 1.12 0.98 0.93 0.97 0.93
1.41 1.46 1.55 1.54 1.49 1.45 1.42 1.45 1.46 1.51 1.52 1.59 1.65 1.70 1.70 1.64 1.61 1.54 1.45 1.45 1.44 1.43 1.46 1.38 1.32 1.38 1.48 1.45 1.45 1.41 1.32 1.27 1.18 1.15 1.14 1.13 1.16 1.20 1.16 1.11 1.07 1.06 0.98
1.53 1.53 1.51 1.41 1.33 1.36 1.35 1.39 1.46 1.51 1.52 1.49 1.54 1.56 1.56 1.54 1.54 1.43 1.32 1.28 1.27 1.23 1.16 1.13 1.36 1.38 1.33 1.42 1.42 1.41 1.43 1.30 1.32 1.27 1.14 1.05 1.07 1.08 1.05 0.99 0.83 0.79 0.73
1.61 1.57 1.59 1.54 1.48 1.44 1.45 1.40 1.41 1.42 1.37 1.37 1.41 1.47 1.50 1.45 1.38 1.30 1.19 1.04 0.99 1.04 1.10 1.13 1.12 1.11 1.09 1.08 1.04 1.13 1.17 1.12 1.09 1.05 0.99 0.99 0.98 0.95 0.98 0.95 0.85 0.74 0.74
1.56 1.52 1.50 1.46 1.39 1.32 1.25 1.21 1.17 1.15 1.18 1.18 1.19 1.25 1.30 1.33 1.34 1.35 1.25 1.20 1.13 1.07 1.06 1.09 1.13 1.13 1.11 1.08 1.01 0.91 0.82 0.87 0.91 0.95 0.98 1.02 1.02 0.94 0.88 0.91 0.99 0.99 0.91
1.51 1.38 1.32 1.30 1.25 1.21 1.15 1.12 1.07 1.08 1.03 1.03 1.06 1.11 1.23 1.32 1.36 1.33 1.23 1.16 1.12 1.04 1.00 0.99 0.93 0.91 0.85 0.77 0.76 0.79 0.86 0.88 0.88 0.90 0.91 0.90 0.90 0.91 0.96 0.98 1.03 1.07 1.12
1.30 1.25 1.26 1.26 1.20 1.11 1.06 1.05 1.05 1.11 1.01 0.94 0.95 0.96 1.00 1.10 1.14 1.12 1.07 1.01 0.96 0.91 0.86 0.75 0.65 0.62 0.60 0.66 0.68 0.74 0.82 0.82 0.81 0.79 0.79 0.81 0.84 0.90 0.97 0.96 0.99 1.01 1.04
1.31 1.24 1.11 1.04 1.00 1.10 1.10 1.01 0.93 0.90 0.84 0.78 0.79 0.83 0.90 0.94 0.96 0.97 0.94 0.87 0.78 0.68 0.59 0.58 0.61 0.66 0.72 0.74 0.75 0.77 0.80 0.76 0.71 0.70 0.70 0.73 0.80 0.85 0.91 0.93 0.89 0.93 0.94
1.16 1.16 1.17 1.12 1.04 0.99 0.94 0.90 0.86 0.85 0.81 0.73 0.68 0.64 0.67 0.67 0.70 0.69 0.65 0.61 0.63 0.64 0.64 0.66 0.66 0.69 0.69 0.72 0.76 0.77 0.78 0.77 0.72 0.71 0.67 0.65 0.65 0.66 0.74 0.88 0.88 0.90 0.86
1.12 1.08 1.04 1.04 0.99 0.93 0.89 0.85 0.90 0.86 0.82 0.81 0.80 0.78 0.78 0.79 0.78 0.77 0.75 0.72 0.73 0.73 0.70 0.67 0.66 0.72 0.69 0.67 0.67 0.70 0.75 0.73 0.73 0.73 0.70 0.70 0.67 0.67 0.64 0.65 0.74 0.79 0.80
1.04 0.93 0.85 0.88 0.87 0.83 0.83 0.82 0.77 0.84 0.86 0.84 0.83 0.82 0.81 0.81 0.79 0.76 0.74 0.75 0.78 0.78 0.71 0.70 0.68 0.69 0.69 0.65 0.66 0.66 0.65 0.70 0.72 0.70 0.66 0.64 0.65 0.66 0.66 0.65 0.64 0.66 0.69
0.87 0.81 0.85 0.87 0.85 0.84 0.79 0.75 0.73 0.71 0.71 0.74 0.81 0.80 0.80 0.79 0.79 0.79 0.81 0.81 0.75 0.75 0.71 0.70 0.69 0.68 0.69 0.70 0.69 0.71 0.72 0.72 0.70 0.69 0.68 0.68 0.70 0.69 0.67 0.68 0.70 0.68 0.69
0.88 0.84 0.83 0.77 0.74 0.73 0.74 0.72 0.71 0.67 0.65 0.67 0.72 0.74 0.76 0.77 0.77 0.79 0.80 0.75 0.71 0.67 0.69 0.65 0.68 0.70 0.71 0.72 0.73 0.74 0.74 0.72 0.71 0.72 0.72 0.72 0.73 0.73 0.71 0.74 0.75 0.73 0.74
0.87 0.86 0.80 0.77 0.76 0.76 0.75 0.70 0.71 0.71 0.69 0.68 0.68 0.72 0.79 0.78 0.75 0.76 0.80 0.81 0.76 0.73 0.68 0.68 0.69 0.64 0.68 0.73 0.75 0.74 0.73 0.73 0.73 0.74 0.74 0.75 0.77 0.77 0.74 0.75 0.78 0.77 0.77
0.94 0.92 0.92 0.87 0.75 0.75 0.78 0.78 0.75 0.75 0.72 0.72 0.75 0.80 0.80 0.80 0.77 0.80 0.79 0.79 0.76 0.74 0.73 0.74 0.69 0.63 0.71 0.77 0.78 0.79 0.78 0.78 0.80 0.80 0.81 0.81 0.80 0.77 0.80 0.81 0.81 0.83 0.83
0.89 0.83 0.79 0.75 0.75 0.79 0.81 0.80 0.78 0.78 0.76 0.74 0.76 0.82 0.86 0.81 0.79 0.83 0.87 0.86 0.82 0.79 0.79 0.76 0.67 0.61 0.74 0.78 0.81 0.81 0.81 0.83 0.84 0.86 0.85 0.83 0.82 0.82 0.80 0.83 0.86 0.85 0.83
0.70 0.69 0.72 0.75 0.77 0.76 0.74 0.74 0.73 0.72 0.72 0.75 0.81 0.82 0.82 0.80 0.81 0.83 0.85 0.85 0.84 0.81 0.84 0.74 0.65 0.65 0.72 0.74 0.81 0.84 0.82 0.83 0.86 0.88 0.87 0.84 0.83 0.79 0.80 0.80 0.82 0.82 0.81
0.68 0.75 0.75 0.77 0.76 0.69 0.67 0.68 0.70 0.71 0.77 0.77 0.78 0.80 0.80 0.83 0.84 0.86 0.86 0.87 0.86 0.85 0.83 0.73 0.71 0.69 0.72 0.73 0.71 0.74 0.74 0.71 0.73 0.76 0.78 0.75 0.74 0.73 0.73 0.72 0.69 0.70 0.76
0.72 0.75 0.73 0.71 0.72 0.70 0.67 0.69 0.74 0.77 0.81 0.79 0.80 0.82 0.85 0.84 0.87 0.87 0.88 0.85 0.83 0.81 0.72 0.70 0.71 0.70 0.72 0.76 0.77 0.77 0.76 0.74 0.71 0.70 0.68 0.65 0.62 0.64 0.64 0.63 0.63 0.66 0.75
0.72 0.73 0.73 0.76 0.76 0.77 0.75 0.75 0.80 0.85 0.85 0.83 0.82 0.82 0.81 0.82 0.81 0.77 0.75 0.77 0.78 0.78 0.73 0.73 0.73 0.75 0.76 0.76 0.79 0.81 0.83 0.82 0.80 0.80 0.79 0.75 0.71 0.68 0.67 0.65 0.65 0.69 0.75
Wind_Speed
17 17 18 19 21 22 23 24 27 28 28 27 27 27 25 22 22 21 20 19 19 19 17 16 16 15 14 13 13 12 11 13 10 11 11 12 11 13 14 14 15 15 17
18 17 18 18 19 20 21 20 25 31 33 30 29 28 26 24 22 21 19 19 19 18 17 17 17 17 15 15 15 15 13 13 13 13 13 13 14 15 15 15 15 15 15
16 16 15 16 17 20 24 28 39 38 35 32 24 25 24 23 21 20 19 19 18 16 15 15 15 16 16 16 15 15 14 15 16 16 16 16 16 16 17 16 15 16 16
15 15 14 15 16 17 21 24 31 31 26 24 24 23 22 21 20 19 19 18 17 16 15 16 15 16 17 18 17 17 17 18 18 18 18 18 18 18 17 17 17 18 18
15 14 14 15 16 16 18 20 22 20 15 15 19 20 19 18 17 17 17 16 14 16 16 16 18 19 19 20 21 21 21 21 21 21 21 21 21 21 21 20 20 21 21
14 14 15 16 17 18 17 17 16 13 10 10 13 21 19 20 21 21 17 17 19 19 19 19 19 19 19 19 20 20 21 22 22 22 23 23 23 23 23 24 24 24 23
16 17 16 16 16 15 14 14 14 14 13 11 10 10 12 15 16 17 19 18 18 19 20 21 21 21 21 21 21 22 23 24 25 23 24 25 26 26 26 26 26 26 26
16 16 16 15 15 14 14 14 15 14 12 10 9 9 10 12 11 11 14 16 16 18 20 21 23 22 22 23 24 26 25 25 26 27 27 27 28 28 29 29 30 31 31
16 16 15 14 13 12 12 12 13 12 11 11 11 11 11 11 11 11 12 14 16 16 17 18 19 19 20 18 22 25 27 26 27 29 30 31 33 33 34 34 34 34 32
14 14 13 12 12 12 12 12 12 12 12 12 11 10 10 11 12 12 13 14 15 17 18 18 18 18 19 21 22 23 23 26 28 29 30 31 32 32 33 34 34 33 33
13 12 12 12 12 12 12 12 12 12 12 12 12 12 12 12 12 13 14 15 17 18 19 20 22 23 25 26 27 28 28 28 29 30 31 31 31 32 32 32 33 34 35
12 11 11 12 12 12 13 13 14 13 13 14 15 15 15 15 15 16 17 18 19 20 21 23 24 26 28 29 29 29 30 31 31 31 31 31 31 31 31 32 33 34 34
12 11 12 12 13 13 12 12 14 14 13 13 14 15 16 15 16 17 19 20 22 23 24 26 28 28 29 27 28 29 27 27 28 29 29 30 31 32 32 32 32 33 33
12 12 12 12 13 12 13 12 12 13 14 15 15 16 16 16 17 19 21 23 25 25 27 27 28 27 27 28 29 28 28 29 29 30 32 34 35 35 35 35 34 34 34
10 10 12 11 10 11 11 12 13 13 14 15 16 17 18 20 22 23 23 24 25 26 27 26 26 27 27 25 26 28 30 31 32 34 35 36 36 37 37 38 37 37 36
9 10 10 12 10 11 12 13 15 16 17 17 17 17 18 20 21 23 24 25 26 26 27 27 27 28 28 29 31 32 33 34 35 35 36 36 37 37 37 37 38 38 38
8 9 9 10 12 12 13 13 16 18 18 18 19 19 21 22 23 24 25 26 27 26 27 28 28 29 30 31 33 33 34 34 35 35 37 37 37 38 38 38 38 38 37
8 9 10 12 13 13 13 14 15 16 17 19 20 22 24 25 25 27 27 28 28 27 28 28 27 29 31 32 33 33 33 33 34 35 35 36 36 36 36 37 37 37 37
9 10 11 12 14 14 15 16 17 18 18 20 22 23 25 26 26 28 29 29 28 27 26 27 28 30 31 32 32 32 32 33 34 33 34 35 36 37 38 38 38 39 39
8 9 11 12 12 13 15 16 16 17 19 21 24 24 24 25 28 30 29 28 27 25 25 26 28 29 30 31 31 31 32 32 32 32 32 33 33 34 35 35 36 36 37
9 12 13 14 15 15 16 17 17 19 21 23 23 25 25 26 29 27 26 25 22 22 23 25 26 27 28 28 29 28 28 28 27 27 27 26 26 26 26 27 27 28 28
9 10 11 12 14 15 16 17 19 20 21 23 22 22 22 22 23 21 18 17 17 18 20 22 23 24 24 25 24 23 22 22 22 22 22 22 23 23 22 22 23 23 25
9 10 10 12 13 15 18 19 18 18 19 19 18 18 18 19 18 15 16 14 15 16 18 19 19 17 18 18 18 17 17 17 17 18 19 19 20 20 21 21 22 24 23
10 11 12 14 14 15 16 14 13 13 13 15 14 13 15 13 15 14 15 14 15 16 16 16 17 16 17 17 17 17 17 17 17 17 18 19 19 20 21 22 23 24 24
10 10 11 12 11 12 12 10 10 10 11 12 12 13 13 13 14 14 16 14 15 16 16 17 17 17 17 17 17 17 17 17 17 18 18 19 20 21 21 22 23 25 25
10 11 10 10 10 11 11 11 12 12 13 13 14 14 14 14 16 16 15 15 15 16 16 18 18 18 18 18 18 19 19 19 19 19 19 20 21 21 22 22 23 25 25
Wind_Direction
257 256 255 256 257 256 260 263 262 262 260 256 251 251 253 255 253 262 264 265 264 269 270 268 264 264 263 261 260 267 275 253 262 267 274 274 277 285 292 288 286 278 267
256 257 262 266 265 263 264 276 270 272 258 253 250 250 253 255 256 260 263 267 267 268 268 265 261 262 262 262 263 272 260 262 268 270 275 277 279 285 286 288 284 276 274
260 262 265 267 271 277 289 288 290 282 258 243 245 244 247 251 254 258 262 266 266 264 265 264 265 264 263 262 264 264 265 264 268 270 276 283 286 289 284 282 284 280 277
259 262 263 269 274 288 304 314 308 299 277 233 243 244 247 250 252 256 258 265 261 260 264 268 270 268 266 264 260 261 263 267 268 272 276 280 283 286 288 283 284 284 282
256 260 265 274 288 295 304 318 334 336 235 252 239 241 244 247 255 256 261 260 263 269 269 269 273 272 270 263 262 262 264 268 270 272 274 277 280 281 281 280 282 284 283
255 260 269 280 289 298 302 315 327 329 314 286 262 252 257 255 262 260 267 266 270 271 273 276 275 274 274 269 263 263 266 269 271 272 273 275 278 281 282 282 282 282 282
258 264 270 280 290 295 302 308 317 320 317 308 283 279 258 270 276 255 263 270 273 270 271 273 277 277 274 271 267 270 269 270 270 274 273 274 277 278 280 281 281 281 281
257 263 269 278 283 285 292 300 308 312 313 310 296 287 283 276 277 270 267 272 274 273 274 279 279 277 278 271 272 272 269 272 272 272 275 276 276 277 279 279 280 280 281
254 258 266 273 276 282 290 297 305 307 305 302 290 287 286 279 278 280 280 278 280 280 279 283 282 281 285 281 276 278 270 272 275 278 275 275 275 277 277 278 278 278 279
246 253 257 264 274 280 288 293 298 301 302 300 294 287 279 276 280 280 283 282 281 281 281 283 282 283 284 284 285 283 282 278 279 275 278 279 280 280 278 277 277 276 276
242 246 256 266 274 282 288 293 296 298 300 298 293 289 286 279 280 282 285 285 285 284 283 282 282 284 284 283 283 283 282 281 280 280 281 282 282 282 282 280 278 276 275
234 242 254 264 273 281 287 290 293 295 293 292 291 288 286 278 278 279 284 286 285 286 286 287 287 287 287 286 284 282 282 282 281 282 282 282 284 285 283 281 280 278 278
233 248 260 266 272 278 284 288 291 290 294 295 293 291 288 281 280 280 284 287 287 287 287 289 289 288 287 285 283 284 283 283 284 284 285 285 285 285 285 284 282 282 280
238 250 260 265 268 272 282 287 291 289 290 290 289 289 287 286 284 284 285 287 288 289 289 289 289 287 286 286 286 282 284 285 285 285 284 285 285 284 284 284 283 283 282
245 240 257 257 267 275 282 286 288 289 292 294 290 287 285 285 286 286 288 289 290 291 291 290 289 288 288 288 287 286 285 287 287 287 287 287 286 284 282 282 282 281 280
232 246 258 265 270 279 287 288 290 289 291 293 293 291 291 291 291 291 290 291 291 292 290 289 288 288 287 289 289 287 287 287 287 288 287 286 285 284 285 284 280 279 277
236 255 262 268 277 283 288 288 292 292 293 293 292 292 293 294 294 295 293 292 291 291 290 289 288 288 288 290 290 288 287 287 287 286 287 287 285 284 283 282 280 277 276
249 261 272 279 282 284 286 290 294 295 296 296 293 292 293 293 293 295 294 293 293 291 291 290 289 291 292 292 292 290 288 288 290 289 288 287 286 285 285 283 281 278 276
263 267 276 285 284 285 287 290 293 297 301 299 300 298 295 295 295 295 294 292 291 291 291 292 294 296 296 295 293 292 291 291 291 290 290 289 289 287 285 283 280 278 277
269 272 278 287 292 289 290 295 295 295 299 304 303 302 302 299 299 296 292 292 289 289 292 297 300 301 301 298 296 294 293 292 292 292 291 293 293 292 289 287 284 280 277
282 285 279 286 290 294 293 294 294 298 298 301 301 302 303 303 306 296 293 292 289 291 296 300 304 306 306 303 300 299 296 295 294 296 296 297 299 299 298 295 293 288 283
292 297 297 293 294 297 298 300 299 300 303 303 303 302 305 309 313 304 296 299 296 299 304 308 309 310 313 312 309 307 305 301 300 300 301 301 303 302 306 305 302 301 290
297 303 301 304 306 306 306 304 303 303 305 306 307 306 307 312 315 310 306 300 303 307 311 315 318 319 326 330 330 325 320 315 312 308 308 308 309 307 307 308 306 305 301
307 307 308 307 306 312 315 314 310 312 315 315 314 313 320 316 319 314 316 307 307 311 315 319 323 322 326 330 331 333 330 326 321 318 316 315 311 309 309 306 307 309 305
315 318 319 317 315 320 328 326 322 322 322 327 325 323 321 320 320 319 318 309 310 313 315 318 319 318 318 321 325 328 331 331 327 324 322 319 316 314 311 311 309 311 306
312 312 313 321 323 316 314 317 317 311 317 314 322 321 319 316 318 319 318 313 312 313 315 319 319 316 315 315 317 318 319 321 323 324 323 321 319 318 316 315 314 316 311